When you browse on this site, cookies collect data to enhance your experience and personalize the content and advertising you see.
Visit our Privacy Policy to learn more. By continuing to use the site, you agree to this use of cookies and data.
  • In Switzerland
  • List of Countries
  • For 7 days
  • Water Temperature
  • Satellite Maps
  • Weather Map
  • Weather Widgets
  • user-avatar
    Login

    Hourly Weather Lausanne

    Today, 25 April, Thursday

    Time Temperature Precipitation Wind Pressure Humidity
    00:00 +8°C° 0 mm 0 mps 716 mmHg 89%
    01:00 +9°C° 0 mm 1 mps 716 mmHg 88%
    02:00 +8°C° 0 mm 1 mps 716 mmHg 87%
    03:00 +8°C° 0 mm 1 mps 716 mmHg 86%
    04:00 +9°C° 0 mm 1 mps 716 mmHg 83%
    05:00 +10°C° 0 mm 1 mps 716 mmHg 81%
    06:00 +11°C° 0 mm 1 mps 716 mmHg 78%
    07:00 +14°C° 0 mm 1 mps 716 mmHg 68%
    08:00 +16°C° 0 mm 1 mps 716 mmHg 57%
    09:00 +20°C° 0 mm 1 mps 716 mmHg 47%
    10:00 +20°C° 0 mm 2 mps 717 mmHg 43%
    11:00 +21°C° 0 mm 3 mps 717 mmHg 39%
    12:00 +22°C° 0 mm 3 mps 717 mmHg 36%
    13:00 +22°C° 0 mm 3 mps 717 mmHg 38%
    14:00 +23°C° 0 mm 2 mps 717 mmHg 41%
    15:00 +21°C° 0 mm 2 mps 717 mmHg 43%
    16:00 +19°C° 0.1 mm 2 mps 717 mmHg 55%
    17:00 +18°C° 0.1 mm 1 mps 716 mmHg 66%
    18:00 +15°C° 0.1 mm 1 mps 716 mmHg 77%
    19:00 +14°C° 0.3 mm 1 mps 717 mmHg 82%
    20:00 +13°C° 0.3 mm 2 mps 717 mmHg 87%
    21:00 +12°C° 0.3 mm 2 mps 718 mmHg 91%
    22:00 +10°C° 1.3 mm 2 mps 718 mmHg 92%
    23:00 +9°C° 1.3 mm 2 mps 717 mmHg 93%

    Tomorrow, 26 April, Friday

    Time Temperature Precipitation Wind Pressure Humidity
    00:00 +8°C° 1.3 mm 2 mps 717 mmHg 94%
    01:00 +9°C° 2.4 mm 1 mps 717 mmHg 95%
    02:00 +8°C° 2.4 mm 1 mps 717 mmHg 96%
    03:00 +8°C° 2.4 mm 1 mps 717 mmHg 96%
    04:00 +7°C° 2.1 mm 2 mps 718 mmHg 96%
    05:00 +7°C° 2.1 mm 2 mps 718 mmHg 96%
    06:00 +7°C° 2.1 mm 2 mps 718 mmHg 96%
    07:00 +7°C° 1.5 mm 2 mps 719 mmHg 95%
    08:00 +7°C° 1.5 mm 2 mps 720 mmHg 94%
    09:00 +8°C° 1.5 mm 2 mps 721 mmHg 93%
    10:00 +8°C° 0.3 mm 2 mps 721 mmHg 89%
    11:00 +10°C° 0.3 mm 1 mps 721 mmHg 85%
    12:00 +11°C° 0.3 mm 1 mps 721 mmHg 82%
    13:00 +11°C° 0 mm 1 mps 721 mmHg 79%
    14:00 +12°C° 0 mm 1 mps 721 mmHg 75%
    15:00 +12°C° 0 mm 1 mps 722 mmHg 72%
    16:00 +11°C° 0 mm 1 mps 722 mmHg 75%
    17:00 +10°C° 0 mm 1 mps 722 mmHg 78%
    18:00 +10°C° 0 mm 1 mps 722 mmHg 82%
    19:00 +9°C° 0 mm 1 mps 723 mmHg 83%
    20:00 +8°C° 0 mm 1 mps 723 mmHg 84%
    21:00 +6°C° 0 mm 2 mps 724 mmHg 85%
    22:00 +6°C° 0 mm 2 mps 724 mmHg 86%
    23:00 +5°C° 0 mm 2 mps 724 mmHg 87%

    Day after tomorrow, 27 April, Saturday

    Time Temperature Precipitation Wind Pressure Humidity
    00:00 +5°C° 0 mm 2 mps 724 mmHg 88%
    01:00 +5°C° 0.1 mm 2 mps 724 mmHg 88%
    02:00 +6°C° 0.1 mm 2 mps 724 mmHg 88%
    03:00 +6°C° 0.1 mm 2 mps 725 mmHg 88%
    04:00 +6°C° 0.4 mm 2 mps 725 mmHg 90%
    05:00 +7°C° 0.4 mm 3 mps 725 mmHg 91%
    06:00 +7°C° 0.4 mm 3 mps 725 mmHg 93%
    07:00 +8°C° 0.1 mm 3 mps 725 mmHg 89%
    08:00 +7°C° 0.1 mm 4 mps 724 mmHg 86%
    09:00 +8°C° 0.1 mm 5 mps 724 mmHg 83%
    10:00 +9°C° 0.1 mm 5 mps 724 mmHg 80%
    11:00 +10°C° 0.1 mm 5 mps 724 mmHg 77%
    12:00 +12°C° 0.1 mm 5 mps 723 mmHg 74%
    13:00 +10°C° 0.5 mm 5 mps 723 mmHg 78%
    14:00 +10°C° 0.5 mm 5 mps 723 mmHg 82%
    15:00 +9°C° 0.5 mm 5 mps 723 mmHg 87%
    16:00 +8°C° 0.4 mm 4 mps 723 mmHg 88%
    17:00 +7°C° 0.4 mm 4 mps 723 mmHg 88%
    18:00 +6°C° 0.4 mm 4 mps 723 mmHg 89%
    19:00 +7°C° 0.2 mm 3 mps 724 mmHg 90%
    20:00 +5°C° 0.2 mm 3 mps 724 mmHg 90%
    21:00 +5°C° 0.2 mm 2 mps 725 mmHg 90%
    22:00 +5°C° 0.3 mm 2 mps 725 mmHg 91%
    23:00 +5°C° 0.3 mm 2 mps 725 mmHg 91%

    28 April, Sunday

    Time Temperature Precipitation Wind Pressure Humidity
    00:00 +5°C° 0.3 mm 2 mps 725 mmHg 92%
    01:00 +4°C° 0.1 mm 2 mps 725 mmHg 92%
    02:00 +4°C° 0.1 mm 2 mps 725 mmHg 92%
    03:00 +2°C° 0.1 mm 3 mps 724 mmHg 92%
    04:00 +3°C° 0.1 mm 3 mps 724 mmHg 91%
    05:00 +3°C° 0.1 mm 3 mps 724 mmHg 90%
    06:00 +3°C° 0.1 mm 3 mps 724 mmHg 89%
    07:00 +3°C° 0.6 mm 4 mps 724 mmHg 89%
    08:00 +4°C° 0.6 mm 4 mps 724 mmHg 88%
    09:00 +4°C° 0.6 mm 4 mps 724 mmHg 88%
    10:00 +4°C° 0.4 mm 4 mps 723 mmHg 87%
    11:00 +5°C° 0.4 mm 4 mps 723 mmHg 87%
    12:00 +5°C° 0.4 mm 4 mps 723 mmHg 86%
    13:00 +5°C° 0.2 mm 3 mps 723 mmHg 86%
    14:00 +7°C° 0.2 mm 3 mps 723 mmHg 86%
    15:00 +7°C° 0.2 mm 2 mps 723 mmHg 85%
    16:00 +7°C° 0.3 mm 2 mps 723 mmHg 87%
    17:00 +6°C° 0.3 mm 2 mps 723 mmHg 90%
    18:00 +6°C° 0.3 mm 2 mps 723 mmHg 92%
    19:00 +5°C° 0.8 mm 2 mps 723 mmHg 93%
    20:00 +5°C° 0.8 mm 2 mps 724 mmHg 94%
    21:00 +5°C° 0.8 mm 2 mps 724 mmHg 95%
    22:00 +5°C° 0.3 mm 2 mps 724 mmHg 95%
    23:00 +6°C° 0.3 mm 1 mps 724 mmHg 95%

    29 April, Monday

    Time Temperature Precipitation Wind Pressure Humidity
    00:00 +6°C° 0.3 mm 1 mps 724 mmHg 95%
    01:00 +5°C° 0.1 mm 1 mps 724 mmHg 95%
    02:00 +5°C° 0.1 mm 1 mps 723 mmHg 95%
    03:00 +5°C° 0.1 mm 1 mps 723 mmHg 95%
    04:00 +5°C° 0 mm 1 mps 723 mmHg 94%
    05:00 +6°C° 0 mm 1 mps 723 mmHg 94%
    06:00 +6°C° 0 mm 1 mps 723 mmHg 93%
    07:00 +6°C° 0 mm 2 mps 723 mmHg 91%
    08:00 +7°C° 0 mm 2 mps 723 mmHg 89%
    09:00 +7°C° 0 mm 3 mps 723 mmHg 87%
    10:00 +8°C° 0 mm 3 mps 723 mmHg 87%
    11:00 +8°C° 0 mm 3 mps 723 mmHg 86%
    12:00 +8°C° 0 mm 3 mps 722 mmHg 85%
    13:00 +9°C° 0 mm 3 mps 722 mmHg 85%
    14:00 +9°C° 0 mm 3 mps 722 mmHg 84%
    15:00 +10°C° 0 mm 3 mps 722 mmHg 84%
    16:00 +9°C° 0 mm 3 mps 722 mmHg 87%
    17:00 +9°C° 0 mm 2 mps 722 mmHg 90%
    18:00 +8°C° 0 mm 2 mps 722 mmHg 93%
    19:00 +7°C° 0 mm 2 mps 722 mmHg 94%
    20:00 +7°C° 0 mm 1 mps 723 mmHg 95%
    21:00 +7°C° 0 mm 1 mps 723 mmHg 96%
    22:00 +6°C° 0 mm 1 mps 723 mmHg 95%
    23:00 +6°C° 0 mm 1 mps 723 mmHg 95%

    30 April, Tuesday

    Time Temperature Precipitation Wind Pressure Humidity
    00:00 +5°C° 0 mm 1 mps 723 mmHg 95%
    01:00 +5°C° 0 mm 1 mps 722 mmHg 95%
    02:00 +5°C° 0 mm 1 mps 722 mmHg 94%
    03:00 +5°C° 0 mm 1 mps 722 mmHg 94%
    04:00 +6°C° 0 mm 1 mps 722 mmHg 92%
    05:00 +6°C° 0 mm 1 mps 722 mmHg 91%
    06:00 +7°C° 0 mm 1 mps 722 mmHg 89%
    07:00 +8°C° 0 mm 2 mps 722 mmHg 86%
    08:00 +10°C° 0 mm 2 mps 721 mmHg 83%
    09:00 +12°C° 0 mm 3 mps 721 mmHg 80%
    10:00 +13°C° 0 mm 3 mps 721 mmHg 76%
    11:00 +14°C° 0 mm 3 mps 721 mmHg 73%
    12:00 +16°C° 0 mm 3 mps 720 mmHg 70%
    13:00 +16°C° 0 mm 3 mps 720 mmHg 71%
    14:00 +16°C° 0 mm 3 mps 720 mmHg 71%
    15:00 +16°C° 0 mm 2 mps 720 mmHg 71%
    16:00 +15°C° 0.1 mm 2 mps 720 mmHg 77%
    17:00 +13°C° 0.1 mm 2 mps 720 mmHg 84%
    18:00 +12°C° 0.1 mm 2 mps 720 mmHg 90%
    19:00 +11°C° 0 mm 1 mps 720 mmHg 91%
    20:00 +10°C° 0 mm 1 mps 720 mmHg 93%
    21:00 +8°C° 0 mm 1 mps 721 mmHg 94%
    22:00 +8°C° 0 mm 1 mps 721 mmHg 94%
    23:00 +8°C° 0 mm 1 mps 720 mmHg 94%
    Show more